Weather in Ural

Russia / Republic of Bashkortostan     54°23′40″N   56°14′33″E
temp.,
°C
wind,
m/s
gust,
m/s
humid.,
%
clouds,
%
prec.,
mm/h
press.,
hPa
HPBL,
m
1 march, mon
mon123:00−13wnw359688 0.3 1008109
02:00−13w369693 0.2 1010147
05:00−14w349694 0.5 1012110
08:00−15w349691 0.3 101481
11:00−13w349492 0.4 1015280
14:00−12w3388100 0.2 1016436
17:00−12w3491100 0.3 1017418
20:00−15wnw239691 0.1 101736
2 march, tue
tue223:00−19wsw229876 0.2 101820
02:00−20wsw239988 0.0 101827
05:00−21s349790 0.1 101767
08:00−22s499657 0.0 1015193
11:00−18s8129379 0.0 1013347
14:00−14s91492100 0.2 1009498
17:00−12ssw81491100 0.6 1007681
20:00−10s81493100 1.0 1005651
3 march, wed
wed323:00−8s71493100 1.9 1003637
02:00−5ssw71395100 1.3 1000623
05:00−3sw71296100 2.3 999496
08:00−4sw5996100 0.4 999263
11:00−2wsw688799 0.4 1000764
14:00−2wsw6887100 0.1 1000863
17:00−2wsw5787100 0.2 1001687
20:00−4w3795100 0.1 1001343
4 march, thu
thu423:00−6wsw4892100 0.2 1003227
02:00−8w5995100 0.1 1002300
05:00−9w599599 0.4 1004255
08:00−12w479596 0.1 1005174
11:00−10wsw479398 0.2 1006298
14:00−8sw589093 0.0 1005430
17:00−6sw6109096 0.1 1005668
20:00−8ssw71391100 0.1 1005508
5 march, fri
fri523:00−6ssw91594100 0.6 1004735
02:00−4ssw101793100 1.7 1000893
05:00−2sw111893100 2.6 9971029
08:00−1sw111993100 0.7 9961211
11:000wsw121887100 1.3 9971246
14:00−2w10167375 0.4 10011333
17:00−6w6118360 0.4 1006845
20:00−11wsw449075 0.0 101069